Location: Acts Church of Fort Worth
(32.6786°N, 97.2668°W)
Time: 22:48:00
(UTC+00:00)

CARTOSAT-1 - Pass Details

Date: 18 January 2026
Orbit: 594 x 598 km, 97.5° (Epoch: 11 February)

Event Time Altitude Azimuth Distance (km) Brightness Sun altitude
Rises 01:41:33 0° 177° (S) 2,826 7.0 -23.6°
Reaches altitude 10° 01:43:45 10° 182° (S) 1,927 6.2 -24.1°
Maximum altitude 01:47:51 54° 260° (W) 725 4.1 -24.9°
Drops below altitude 10° 01:51:59 10° 338° (NNW) 1,939 6.2 -25.8°
Sets 01:54:12 0° 343° (NNW) 2,844 7.1 -26.3°
